[[{"header":{"parameterUnit":"m.s-1","parameterCategory":1,"la1":30.2992,"la2":30.254,"lo1":-89.0895,"lo2":-89.0443,"dy":0.0025,"dx":0.0025,"nx":19,"ny":19,"refTime":"2026-05-05T03:00:00:Z","depth":0,"parameterNumber":2,"parameterNumberName":"U-component_of_WINDS"},"data":[0,0,0,1.569,1.5692,1.5746,1.5746,1.5816,1.5816,0,0,0,0,0,0,0,0,0,0,0,1.5677,1.5678,1.569,1.5692,1.5746,1.5746,1.5816,1.5816,0,0,0,0,0,0,0,0,0,0,0,1.5677,1.5677,1.5678,1.5692,1.5746,1.5746,1.5816,1.5774,0,0,0,0,0,0,0,0,0,0,1.5721,1.5712,1.5677,1.5678,1.5692,1.5746,1.5746,1.5772,1.5777,1.5792,0,1.5809,0,1.5814,1.5821,1.5822,0,0,0,1.5689,1.5708,1.572,1.5678,1.5693,1.5746,1.5721,1.5774,1.578,1.5798,1.581,1.5812,1.5815,1.5822,1.5822,1.5925,1.5926,0,0,1.5686,1.5688,1.5717,1.5724,1.5718,1.5719,1.5723,1.5778,1.5789,1.581,1.5814,1.5816,1.5822,1.5823,1.5925,1.5925,0,0,0,1.5679,1.5686,1.5697,1.5721,1.5731,1.5721,1.5725,1.5787,1.579,1.5815,1.5817,1.5823,1.5824,1.5924,1.5925,1.5956,0,0,0,1.5677,1.5682,1.5696,1.5697,1.573,1.576,1.5733,1.5787,1.5793,1.5817,1.5823,1.5824,1.5923,1.5924,1.5953,1.5969,0,0,0,1.5672,1.5681,1.569,1.5697,1.5721,1.5759,1.5766,1.5788,1.5795,1.5822,1.5825,1.5923,1.5924,1.5951,1.5966,1.5996,0,0,0,1.5667,1.5716,1.5691,1.5746,1.572,1.5779,1.5766,1.5809,1.5836,1.5823,1.5923,1.5925,1.5951,1.5964,1.5994,1.6021,1.6032,0,0,1.573,1.5724,1.5757,1.5735,1.5799,1.5771,1.5838,1.5861,1.5861,1.5903,1.5906,1.5954,1.5966,1.5995,1.61,1.6109,0,0,0,1.5777,1.58,1.5817,1.5844,1.5864,1.5881,1.5893,1.5901,1.5937,1.5884,1.5974,1.5981,1.5998,1.601,1.6018,1.6032,1.5931,1.5931,1.5931,1.5867,1.5866,1.592,1.5925,1.5951,1.5963,1.5983,1.5996,1.5987,1.6008,1.602,1.6084,1.6099,1.6105,1.6119,1.6035,1.6035,1.6035,1.6035,1.5958,1.599,1.5977,1.6025,1.6023,1.6061,1.6074,1.6067,1.6101,1.6075,1.609,1.606,1.6115,1.6127,1.6038,1.6037,1.6037,1.6037,1.6037,1.6015,1.603,1.6041,1.6079,1.6108,1.6111,1.6144,1.6141,1.6138,1.6153,1.6164,1.6164,1.6162,1.6159,1.6159,1.616,1.616,1.616,1.616,1.607,1.6081,1.6111,1.6136,1.6152,1.6173,1.6185,1.62,1.6216,1.621,1.621,1.6198,1.6122,1.6101,1.6164,1.6163,1.6163,1.6162,1.6162,1.616,1.6139,1.6185,1.6202,1.623,1.6257,1.6254,1.6284,1.6296,1.6312,1.6297,1.6242,1.6235,1.6228,1.6211,1.6298,1.6298,1.6298,1.6298,1.6207,1.6204,1.625,1.6276,1.6301,1.6302,1.6351,1.6361,1.6367,1.6374,1.6361,1.6339,1.6333,1.633,1.6321,1.6305,1.6414,1.6414,1.6414,1.6261,1.626,1.6304,1.6312,1.6334,1.6351,1.6397,1.6425,1.6428,1.6419,1.6379,1.6374,1.6338,1.6327,1.6316,1.6302,1.6273,0,0]},{"header":{"parameterUnit":"m.s-1","parameterCategory":1,"la1":30.2992,"la2":30.254,"lo1":-89.0895,"lo2":-89.0443,"dy":0.0025,"dx":0.0025,"nx":19,"ny":19,"refTime":"2026-05-05T03:00:00:Z","depth":0,"parameterNumber":3,"parameterNumberName":"V-component_of_WINDS"},"data":[0,0,0,4.3976,4.3978,4.408,4.4081,4.4219,4.422,0,0,0,0,0,0,0,0,0,0,0,4.3952,4.3953,4.3975,4.3978,4.408,4.4081,4.4218,4.422,0,0,0,0,0,0,0,0,0,0,0,4.3951,4.3953,4.3954,4.3979,4.408,4.4081,4.4218,4.4138,0,0,0,0,0,0,0,0,0,0,4.4037,4.4022,4.3952,4.3954,4.3979,4.408,4.4081,4.4134,4.4143,4.4176,0,4.4209,0,4.4217,4.423,4.423,0,0,0,4.3973,4.4015,4.4036,4.3954,4.398,4.408,4.4033,4.4139,4.4149,4.4188,4.4211,4.4216,4.4219,4.4231,4.4232,4.4441,4.4442,0,0,4.3967,4.3974,4.4029,4.4043,4.403,4.403,4.4036,4.4145,4.417,4.4211,4.4219,4.4221,4.4232,4.4233,4.444,4.4442,0,0,0,4.3955,4.397,4.3989,4.4038,4.4056,4.4033,4.404,4.4165,4.417,4.422,4.4223,4.4233,4.4234,4.4439,4.4441,4.4507,0,0,0,4.3951,4.3962,4.3986,4.3991,4.4054,4.4112,4.4058,4.4163,4.4175,4.4222,4.4233,4.4236,4.4438,4.444,4.4503,4.4538,0,0,0,4.3943,4.3961,4.3978,4.3991,4.4036,4.411,4.4122,4.4165,4.4177,4.4231,4.4236,4.4437,4.4439,4.4499,4.4531,4.4595,0,0,0,4.3936,4.4037,4.398,4.4093,4.4035,4.4151,4.4121,4.4207,4.4261,4.4233,4.4438,4.4441,4.4497,4.4527,4.4591,4.4651,4.4676,0,0,4.4067,4.4053,4.4119,4.407,4.4198,4.4135,4.4271,4.4315,4.4313,4.4398,4.4403,4.4504,4.4531,4.4594,4.4815,4.4835,0,0,0,4.4162,4.421,4.4242,4.4294,4.4329,4.4361,4.4383,4.4398,4.447,4.4359,4.4544,4.456,4.4596,4.4625,4.4642,4.4673,4.4454,4.4453,4.4453,4.4358,4.435,4.4458,4.4462,4.4512,4.4532,4.4571,4.4595,4.4573,4.4616,4.4642,4.4777,4.4811,4.4824,4.4856,4.4672,4.4673,4.4673,4.4673,4.4549,4.4615,4.4581,4.4675,4.4665,4.4742,4.4763,4.4744,4.4814,4.4758,4.479,4.473,4.4846,4.4874,4.4678,4.4677,4.4676,4.4676,4.4676,4.4678,4.4708,4.4724,4.4796,4.4851,4.485,4.4918,4.4906,4.4896,4.4927,4.4952,4.4951,4.4949,4.494,4.494,4.4941,4.4941,4.4941,4.4942,4.4805,4.4821,4.488,4.4923,4.4953,4.4991,4.5008,4.5037,4.5066,4.5052,4.5052,4.5025,4.4859,4.4817,4.4949,4.4948,4.4947,4.4946,4.4946,4.5005,4.4957,4.5049,4.5079,4.5126,4.5181,4.5163,4.5222,4.5244,4.5277,4.5242,4.512,4.5105,4.5092,4.5058,4.5244,4.5244,4.5244,4.5244,4.5114,4.5104,4.5194,4.5242,4.5287,4.528,4.5381,4.5394,4.54,4.5412,4.5383,4.5336,4.5322,4.5315,4.5297,4.5265,4.5499,4.5499,4.55,4.5236,4.523,4.532,4.5325,4.536,4.539,4.5484,4.5539,4.5535,4.551,4.5421,4.541,4.5334,4.531,4.5286,4.5257,4.5198,0,0]}]]